| time (UTC) | temp C | wind direction | speed KPH | gust KPH | rain 1hr cm | rain 24hr cm | rain mn cm | humidity % | barometer mb |
| 20260505122055 | 17 | 194 | 6.4 | 16.1 | 0.00 | 0.00 | 0.00 | 69 | 1006.5 |
| 20260505121600 | 17 | 211 | 8.0 | 19.3 | 0.00 | 0.00 | 0.00 | 68 | 1006.4 |
| 20260505121503 | 17 | 114 | 6.4 | 22.5 | 0.00 | 0.00 | 0.00 | 68 | 1006.3 |
| 20260505121012 | 17 | 200 | 6.4 | 22.5 | 0.00 | 0.00 | 0.00 | 69 | 1006.3 |
| 20260505120526 | 17 | 232 | 8.0 | 20.9 | 0.00 | 0.00 | 0.00 | 69 | 1006.3 |
| 20260505120015 | 17 | 165 | 6.4 | 17.7 | 0.00 | 0.00 | 0.00 | 69 | 1006.2 |
| 20260505115529 | 17 | 251 | 3.2 | 17.7 | 0.00 | 0.00 | 0.00 | 69 | 1006.2 |
| 20260505115040 | 17 | 212 | 6.4 | 17.7 | 0.00 | 0.00 | 0.00 | 69 | 1006.3 |
| 20260505114545 | 17 | 142 | 6.4 | 16.1 | 0.00 | 0.00 | 0.00 | 69 | 1006.2 |
| 20260505114042 | 17 | 84 | 3.2 | 14.5 | 0.00 | 0.00 | 0.00 | 70 | 1006.2 |
| 20260505113600 | 17 | 171 | 4.8 | 16.1 | 0.00 | 0.00 | 0.00 | 69 | 1006.2 |
| 20260505113104 | 17 | 105 | 9.7 | 16.1 | 0.00 | 0.00 | 0.00 | 69 | 1006.1 |
| 20260505112553 | 16 | 86 | 4.8 | 16.1 | 0.00 | 0.00 | 0.00 | 70 | 1006.2 |
| 20260505112007 | 16 | 214 | 4.8 | 16.1 | 0.00 | 0.00 | 0.00 | 70 | 1006.1 |
| 20260505111520 | 16 | 194 | 4.8 | 16.1 | 0.00 | 0.00 | 0.00 | 70 | 1006.1 |
| 20260505111006 | 16 | 242 | 1.6 | 12.9 | 0.00 | 0.00 | 0.00 | 70 | 1006.1 |
| 20260505110519 | 16 | 171 | 1.6 | 16.1 | 0.00 | 0.00 | 0.00 | 70 | 1006.1 |
| 20260505102055 | 17 | 213 | 1.6 | 14.5 | 0.00 | 0.00 | 0.00 | 69 | 1006.1 |
| 20260505101512 | 17 | 219 | 4.8 | 12.9 | 0.00 | 0.00 | 0.00 | 69 | 1006.0 |
| 20260505101022 | 17 | 192 | 3.2 | 16.1 | 0.00 | 0.00 | 0.00 | 69 | 1006.0 |
| 20260505100529 | 17 | 86 | 4.8 | 17.7 | 0.00 | 0.00 | 0.00 | 69 | 1005.8 |
| 20260505100029 | 17 | 237 | 6.4 | 22.5 | 0.00 | 0.00 | 0.00 | 69 | 1005.8 |
| 20260505095535 | 17 | 257 | 9.7 | 22.5 | 0.00 | 0.00 | 0.00 | 69 | 1005.7 |
| 20260505095053 | 17 | 305 | 8.0 | 19.3 | 0.00 | 0.00 | 0.00 | 69 | 1005.6 |
| 20260505094535 | 17 | 265 | 3.2 | 19.3 | 0.00 | 0.00 | 0.00 | 68 | 1005.4 |
| 20260505094047 | 17 | 189 | 6.4 | 20.9 | 0.00 | 0.00 | 0.00 | 68 | 1005.4 |
| 20260505093509 | 17 | 203 | 8.0 | 20.9 | 0.00 | 0.00 | 0.00 | 68 | 1005.3 |
| 20260505093057 | 17 | 231 | 9.7 | 22.5 | 0.00 | 0.00 | 0.00 | 68 | 1005.2 |
| 20260505092508 | 17 | 69 | 8.0 | 22.5 | 0.00 | 0.00 | 0.00 | 68 | 1005.4 |
| 20260505092026 | 17 | 232 | 4.8 | 19.3 | 0.00 | 0.00 | 0.00 | 68 | 1005.3 |
| 20260505091541 | 17 | 181 | 6.4 | 33.8 | 0.00 | 0.00 | 0.00 | 67 | 1005.4 |
| 20260505091027 | 17 | 192 | 8.0 | 33.8 | 0.00 | 0.00 | 0.00 | 67 | 1005.3 |
| 20260505090535 | 17 | 107 | 6.4 | 30.6 | 0.00 | 0.00 | 0.00 | 67 | 1005.2 |
| 20260505090106 | 17 | 67 | 8.0 | 32.2 | 0.00 | 0.00 | 0.00 | 66 | 1005.1 |
| 20260505085540 | 17 | 128 | 9.7 | 32.2 | 0.00 | 0.00 | 0.00 | 66 | 1005.2 |
| 20260505085056 | 17 | 146 | 8.0 | 20.9 | 0.00 | 0.00 | 0.00 | 66 | 1005.2 |
| 20260505084509 | 17 | 159 | 6.4 | 17.7 | 0.00 | 0.00 | 0.00 | 66 | 1005.2 |
| 20260505084013 | 17 | 186 | 6.4 | 24.1 | 0.00 | 0.00 | 0.00 | 66 | 1005.3 |
| 20260505083511 | 17 | 115 | 9.7 | 24.1 | 0.00 | 0.00 | 0.00 | 66 | 1005.3 |
| 20260505083028 | 17 | 211 | 6.4 | 20.9 | 0.00 | 0.00 | 0.00 | 66 | 1005.2 |
| 20260505082536 | 17 | 170 | 6.4 | 20.9 | 0.00 | 0.00 | 0.00 | 67 | 1004.8 |
| 20260505082030 | 17 | 194 | 4.8 | 17.7 | 0.00 | 0.00 | 0.00 | 67 | 1005.0 |
| 20260505081546 | 17 | 259 | 8.0 | 22.5 | 0.00 | 0.00 | 0.00 | 67 | 1005.1 |
| 20260505081056 | 18 | 221 | 3.2 | 33.8 | 0.00 | 0.00 | 0.00 | 68 | 1004.9 |
| 20260505080552 | 18 | 154 | 6.4 | 33.8 | 0.00 | 0.00 | 0.00 | 67 | 1004.9 |
| 20260505080059 | 18 | 213 | 6.4 | 14.5 | 0.00 | 0.00 | 0.00 | 66 | 1004.9 |
| 20260505075509 | 18 | 339 | 6.4 | 14.5 | 0.00 | 0.00 | 0.00 | 67 | 1004.9 |
| 20260505075024 | 18 | 242 | 4.8 | 14.5 | 0.00 | 0.00 | 0.00 | 66 | 1004.9 |
| 20260505074513 | 18 | 213 | 3.2 | 29.0 | 0.00 | 0.00 | 0.00 | 66 | 1004.8 |
| 20260505074028 | 18 | 290 | 9.7 | 29.0 | 0.00 | 0.00 | 0.00 | 66 | 1004.8 |
| 20260505073541 | 18 | 203 | 3.2 | 22.5 | 0.00 | 0.00 | 0.00 | 66 | 1004.8 |
| 20260505073045 | 18 | 234 | 8.0 | 25.7 | 0.00 | 0.00 | 0.00 | 66 | 1004.7 |
| 20260505072545 | 18 | 158 | 8.0 | 25.7 | 0.00 | 0.00 | 0.00 | 66 | 1004.7 |
| 20260505072057 | 18 | 246 | 6.4 | 19.3 | 0.00 | 0.00 | 0.00 | 66 | 1004.6 |
| 20260505071606 | 18 | 222 | 6.4 | 20.9 | 0.00 | 0.00 | 0.00 | 67 | 1004.7 |
| 20260505071059 | 18 | 128 | 6.4 | 20.9 | 0.00 | 0.00 | 0.00 | 66 | 1004.6 |
| 20260505071002 | 18 | 206 | 4.8 | 20.9 | 0.00 | 0.00 | 0.00 | 66 | 1004.5 |
| 20260505070514 | 18 | 204 | 3.2 | 19.3 | 0.00 | 0.00 | 0.00 | 66 | 1004.5 |
| 20260505070030 | 18 | 275 | 6.4 | 20.9 | 0.00 | 0.00 | 0.00 | 66 | 1004.5 |
| 20260505065515 | 18 | 116 | 6.4 | 20.9 | 0.00 | 0.00 | 0.00 | 66 | 1004.5 |
| 20260505065029 | 18 | 193 | 1.6 | 20.9 | 0.00 | 0.00 | 0.00 | 66 | 1004.5 |
| 20260505064539 | 18 | 339 | 6.4 | 20.9 | 0.00 | 0.00 | 0.00 | 66 | 1004.5 |
| 20260505064039 | 18 | 165 | 4.8 | 14.5 | 0.00 | 0.00 | 0.00 | 66 | 1004.5 |
| 20260505063544 | 18 | 193 | 6.4 | 22.5 | 0.00 | 0.00 | 0.00 | 66 | 1004.6 |
| 20260505063101 | 18 | 128 | 8.0 | 22.5 | 0.00 | 0.00 | 0.00 | 66 | 1004.7 |
| 20260505062509 | 18 | 207 | 0.0 | 17.7 | 0.00 | 0.00 | 0.00 | 66 | 1004.7 |
| 20260505062059 | 18 | 216 | 4.8 | 19.3 | 0.00 | 0.00 | 0.00 | 66 | 1004.7 |
| 20260505062001 | 18 | 175 | 4.8 | 19.3 | 0.00 | 0.00 | 0.00 | 66 | 1004.7 |
| 20260505061516 | 18 | 267 | 6.4 | 20.9 | 0.00 | 0.00 | 0.00 | 66 | 1004.9 |
| 20260505061025 | 18 | 126 | 6.4 | 20.9 | 0.00 | 0.00 | 0.00 | 65 | 1004.9 |
| 20260505060513 | 18 | 217 | 6.4 | 24.1 | 0.00 | 0.00 | 0.00 | 66 | 1005.0 |
| 20260505060032 | 18 | 132 | 3.2 | 24.1 | 0.00 | 0.00 | 0.00 | 66 | 1005.0 |
| 20260505055539 | 18 | 180 | 8.0 | 20.9 | 0.00 | 0.00 | 0.00 | 66 | 1005.1 |
| 20260505055050 | 18 | 229 | 4.8 | 17.7 | 0.00 | 0.00 | 0.00 | 67 | 1005.1 |
| 20260505054536 | 18 | 258 | 6.4 | 17.7 | 0.00 | 0.00 | 0.00 | 67 | 1005.1 |
| 20260505054049 | 18 | 192 | 6.4 | 16.1 | 0.00 | 0.00 | 0.00 | 68 | 1005.2 |
| 20260505053559 | 18 | 150 | 3.2 | 17.7 | 0.00 | 0.00 | 0.00 | 69 | 1005.3 |
| 20260505053507 | 18 | 309 | 3.2 | 17.7 | 0.00 | 0.00 | 0.00 | 69 | 1005.3 |
| 20260505053051 | 18 | 95 | 4.8 | 20.9 | 0.00 | 0.00 | 0.00 | 69 | 1005.3 |
| 20260505052520 | 18 | 223 | 4.8 | 20.9 | 0.00 | 0.00 | 0.00 | 68 | 1005.4 |
| 20260505052020 | 18 | 243 | 4.8 | 17.7 | 0.00 | 0.00 | 0.00 | 68 | 1005.4 |
| 20260505051520 | 18 | 124 | 1.6 | 14.5 | 0.00 | 0.00 | 0.00 | 69 | 1005.5 |
| 20260505051022 | 18 | 204 | 4.8 | 14.5 | 0.00 | 0.00 | 0.00 | 68 | 1005.5 |
| 20260505050538 | 18 | 216 | 1.6 | 11.3 | 0.00 | 0.00 | 0.00 | 68 | 1005.5 |
| 20260505050120 | 18 | 257 | 3.2 | 16.1 | 0.00 | 0.00 | 0.00 | 68 | 1005.5 |
| 20260505041546 | 17 | 103 | 3.2 | 12.9 | 0.00 | 0.00 | 0.00 | 70 | 1005.4 |
| 20260505041040 | 17 | 135 | 3.2 | 12.9 | 0.00 | 0.00 | 0.00 | 70 | 1005.4 |
| 20260505040533 | 17 | 203 | 4.8 | 12.9 | 0.00 | 0.00 | 0.00 | 70 | 1005.4 |
| 20260505040053 | 17 | 121 | 1.6 | 6.4 | 0.00 | 0.00 | 0.00 | 70 | 1005.3 |
| 20260505035553 | 17 | 110 | 1.6 | 11.3 | 0.00 | 0.00 | 0.00 | 70 | 1005.4 |
| 20260505035040 | 17 | 216 | 1.6 | 11.3 | 0.00 | 0.00 | 0.00 | 70 | 1005.4 |
| 20260505034548 | 17 | 157 | 3.2 | 9.7 | 0.00 | 0.00 | 0.00 | 71 | 1005.4 |
| 20260505034059 | 17 | 140 | 1.6 | 9.7 | 0.00 | 0.00 | 0.00 | 71 | 1005.4 |
| 20260505034003 | 17 | 197 | 1.6 | 11.3 | 0.00 | 0.00 | 0.00 | 72 | 1005.4 |
| 20260505033516 | 17 | 220 | 3.2 | 11.3 | 0.00 | 0.00 | 0.00 | 71 | 1005.4 |
| 20260505033101 | 17 | 146 | 3.2 | 11.3 | 0.00 | 0.00 | 0.00 | 72 | 1005.3 |
| 20260505033003 | 17 | 128 | 3.2 | 11.3 | 0.00 | 0.00 | 0.00 | 72 | 1005.4 |
| 20260505032521 | 17 | 128 | 1.6 | 11.3 | 0.00 | 0.00 | 0.00 | 72 | 1005.4 |
| 20260505032026 | 17 | 122 | 1.6 | 11.3 | 0.00 | 0.00 | 0.00 | 72 | 1005.3 |
| 20260505031517 | 17 | 157 | 3.2 | 12.9 | 0.00 | 0.00 | 0.00 | 72 | 1005.3 |
| 20260505031024 | 17 | 139 | 3.2 | 12.9 | 0.00 | 0.00 | 0.00 | 72 | 1005.2 |
| 20260505030538 | 17 | 121 | 3.2 | 12.9 | 0.00 | 0.00 | 0.00 | 73 | 1005.2 |
| 20260505030042 | 17 | 132 | 1.6 | 11.3 | 0.00 | 0.00 | 0.00 | 73 | 1005.2 |
| 20260505025540 | 17 | 120 | 1.6 | 11.3 | 0.00 | 0.00 | 0.00 | 72 | 1005.4 |
| 20260505025050 | 17 | 158 | 1.6 | 11.3 | 0.00 | 0.00 | 0.00 | 72 | 1005.4 |
| 20260505024507 | 17 | 134 | 1.6 | 11.3 | 0.00 | 0.00 | 0.00 | 72 | 1005.5 |
| 20260505024052 | 17 | 144 | 0.0 | 8.0 | 0.00 | 0.00 | 0.00 | 72 | 1005.4 |
| 20260505023510 | 17 | 123 | 0.0 | 8.0 | 0.00 | 0.00 | 0.00 | 72 | 1005.4 |
| 20260505023020 | 17 | 116 | 1.6 | 8.0 | 0.00 | 0.00 | 0.00 | 72 | 1005.4 |
| 20260505022513 | 17 | 170 | 1.6 | 11.3 | 0.00 | 0.00 | 0.00 | 72 | 1005.4 |
| 20260505022021 | 17 | 160 | 1.6 | 11.3 | 0.00 | 0.00 | 0.00 | 72 | 1005.4 |
| 20260505021539 | 17 | 127 | 3.2 | 9.7 | 0.00 | 0.00 | 0.00 | 71 | 1005.4 |
| 20260505021044 | 17 | 142 | 1.6 | 9.7 | 0.00 | 0.00 | 0.00 | 71 | 1005.3 |
| 20260505020536 | 17 | 119 | 0.0 | 8.0 | 0.00 | 0.00 | 0.00 | 70 | 1005.4 |
| 20260505020048 | 17 | 166 | 0.0 | 6.4 | 0.00 | 0.00 | 0.00 | 70 | 1005.4 |
| 20260505015507 | 17 | 170 | 0.0 | 4.8 | 0.00 | 0.00 | 0.00 | 69 | 1005.3 |
| 20260505015055 | 17 | 102 | 1.6 | 6.4 | 0.00 | 0.00 | 0.00 | 69 | 1005.2 |
| 20260505014512 | 17 | 158 | 0.0 | 6.4 | 0.00 | 0.00 | 0.00 | 69 | 1005.2 |
| 20260505014022 | 17 | 138 | 0.0 | 6.4 | 0.00 | 0.00 | 0.00 | 69 | 1005.1 |
| 20260505013528 | 17 | 116 | 1.6 | 9.7 | 0.00 | 0.00 | 0.00 | 68 | 1005.1 |
| 20260505013024 | 17 | 101 | 1.6 | 8.0 | 0.00 | 0.00 | 0.00 | 68 | 1005.0 |
| 20260505012538 | 17 | 123 | 3.2 | 8.0 | 0.00 | 0.00 | 0.00 | 67 | 1005.1 |
| 20260505012049 | 17 | 164 | 1.6 | 12.9 | 0.00 | 0.00 | 0.00 | 68 | 1005.1 |
| 20260505011542 | 17 | 148 | 1.6 | 12.9 | 0.00 | 0.00 | 0.00 | 67 | 1005.0 |
| 20260505011052 | 18 | 105 | 0.0 | 6.4 | 0.00 | 0.00 | 0.00 | 67 | 1005.0 |
| 20260505011001 | 18 | 142 | 0.0 | 6.4 | 0.00 | 0.00 | 0.00 | 67 | 1005.1 |
| 20260505010508 | 18 | 142 | 0.0 | 6.4 | 0.00 | 0.00 | 0.00 | 66 | 1005.0 |
| 20260505010006 | 18 | 124 | 0.0 | 9.7 | 0.00 | 0.00 | 0.00 | 66 | 1005.1 |
| 20260505005514 | 18 | 155 | 1.6 | 9.7 | 0.00 | 0.00 | 0.00 | 65 | 1005.0 |
| 20260505005031 | 18 | 121 | 0.0 | 3.2 | 0.00 | 0.00 | 0.00 | 64 | 1005.1 |
| 20260505004544 | 18 | 155 | 0.0 | 9.7 | 0.00 | 0.00 | 0.00 | 64 | 1005.0 |
| 20260505004032 | 18 | 139 | 0.0 | 9.7 | 0.00 | 0.00 | 0.00 | 63 | 1005.0 |
| 20260505003540 | 19 | 143 | 0.0 | 3.2 | 0.00 | 0.00 | 0.00 | 63 | 1005.0 |
| 20260505003057 | 19 | 123 | 0.0 | 8.0 | 0.00 | 0.00 | 0.00 | 62 | 1005.0 |
| 20260505002544 | 19 | 133 | 3.2 | 9.7 | 0.00 | 0.00 | 0.00 | 62 | 1005.0 |
| 20260505002059 | 19 | 106 | 0.0 | 9.7 | 0.00 | 0.00 | 0.00 | 61 | 1005.1 |
| 20260505001509 | 20 | 182 | 0.0 | 8.0 | 0.00 | 0.00 | 0.00 | 61 | 1005.1 |
| 20260505001010 | 20 | 149 | 0.0 | 9.7 | 0.00 | 0.00 | 0.00 | 60 | 1005.2 |
| 20260505000511 | 20 | 117 | 3.2 | 9.7 | 0.00 | 0.00 | 0.00 | 59 | 1005.2 |
| 20260505000030 | 20 | 135 | 1.6 | 9.7 | 0.00 | 0.00 | 0.00 | 59 | 1005.2 |
| 20260504235534 | 20 | 156 | 1.6 | 8.0 | 0.00 | 0.00 | 0.00 | 59 | 1005.2 |
| 20260504235030 | 20 | 198 | 1.6 | 11.3 | 0.00 | 0.00 | 0.00 | 59 | 1005.4 |
| 20260504234551 | 20 | 173 | 3.2 | 11.3 | 0.00 | 0.00 | 0.00 | 59 | 1005.4 |
| 20260504234052 | 20 | 111 | 1.6 | 11.3 | 0.00 | 0.00 | 0.00 | 57 | 1005.3 |
| 20260504233549 | 20 | 128 | 1.6 | 11.3 | 0.00 | 0.00 | 0.00 | 58 | 1005.4 |
| 20260504233104 | 20 | 141 | 4.8 | 16.1 | 0.00 | 0.00 | 0.00 | 58 | 1005.5 |
| 20260504232507 | 20 | 177 | 3.2 | 16.1 | 0.00 | 0.00 | 0.00 | 57 | 1005.5 |
| 20260504232020 | 20 | 125 | 3.2 | 14.5 | 0.00 | 0.00 | 0.00 | 58 | 1005.5 |
| 20260504231526 | 20 | 197 | 3.2 | 16.1 | 0.00 | 0.00 | 0.00 | 57 | 1005.4 |
| 20260504231045 | 21 | 185 | 8.0 | 19.3 | 0.00 | 0.00 | 0.00 | 56 | 1005.4 |
| 20260504230554 | 21 | 229 | 6.4 | 19.3 | 0.00 | 0.00 | 0.00 | 56 | 1005.5 |
| 20260504230016 | 21 | 197 | 3.2 | 20.9 | 0.00 | 0.00 | 0.00 | 58 | 1005.6 |
| 20260504225521 | 21 | 267 | 4.8 | 20.9 | 0.00 | 0.00 | 0.00 | 58 | 1005.5 |
| 20260504225012 | 21 | 180 | 3.2 | 20.9 | 0.00 | 0.00 | 0.00 | 57 | 1005.7 |
| 20260504224524 | 21 | 207 | 9.7 | 20.9 | 0.00 | 0.00 | 0.00 | 57 | 1005.9 |
| 20260504224039 | 21 | 114 | 4.8 | 20.9 | 0.00 | 0.00 | 0.00 | 58 | 1005.8 |
| 20260504223548 | 21 | 306 | 6.4 | 20.9 | 0.00 | 0.00 | 0.00 | 57 | 1006.0 |
| 20260504223004 | 21 | 327 | 4.8 | 14.5 | 0.00 | 0.00 | 0.00 | 58 | 1006.0 |
| 20260504222518 | 21 | 115 | 4.8 | 16.1 | 0.00 | 0.00 | 0.00 | 58 | 1005.9 |
| 20260504222030 | 21 | 186 | 8.0 | 17.7 | 0.00 | 0.00 | 0.00 | 57 | 1005.9 |
| 20260504221542 | 21 | 205 | 8.0 | 17.7 | 0.00 | 0.00 | 0.00 | 57 | 1005.9 |
| 20260504221111 | 21 | 238 | 3.2 | 19.3 | 0.00 | 0.00 | 0.00 | 57 | 1005.7 |
| 20260504220507 | 21 | 188 | 3.2 | 9.7 | 0.00 | 0.00 | 0.00 | 58 | 1005.6 |
| 20260504220012 | 21 | 240 | 0.0 | 9.7 | 0.00 | 0.00 | 0.00 | 58 | 1005.5 |
| 20260504215519 | 21 | 267 | 3.2 | 9.7 | 0.00 | 0.00 | 0.00 | 56 | 1005.2 |
| 20260504215030 | 21 | 190 | 3.2 | 17.7 | 0.00 | 0.00 | 0.00 | 57 | 1005.5 |
| 20260504214540 | 21 | 193 | 8.0 | 17.7 | 0.00 | 0.00 | 0.00 | 55 | 1005.5 |
| 20260504214054 | 21 | 229 | 4.8 | 17.7 | 0.00 | 0.00 | 0.00 | 56 | 1005.7 |
| 20260504213506 | 21 | 259 | 9.7 | 35.4 | 0.00 | 0.00 | 0.00 | 56 | 1005.8 |
| 20260504213043 | 21 | 247 | 9.7 | 32.2 | 0.00 | 0.00 | 0.00 | 54 | 1006.0 |
| 20260504212533 | 21 | 236 | 11.3 | 32.2 | 0.00 | 0.00 | 0.00 | 54 | 1006.3 |
| 20260504212050 | 22 | 155 | 8.0 | 20.9 | 0.00 | 0.00 | 0.00 | 55 | 1006.2 |
| 20260504211604 | 22 | 249 | 4.8 | 25.7 | 0.00 | 0.00 | 0.00 | 54 | 1006.2 |
| 20260504211016 | 22 | 252 | 8.0 | 24.1 | 0.00 | 0.00 | 0.00 | 55 | 1005.9 |
| 20260504210524 | 22 | 173 | 6.4 | 25.7 | 0.00 | 0.00 | 0.00 | 52 | 1006.1 |
| 20260504210040 | 23 | 224 | 4.8 | 25.7 | 0.00 | 0.00 | 0.00 | 51 | 1006.2 |
| 20260504205550 | 23 | 210 | 8.0 | 22.5 | 0.00 | 0.00 | 0.00 | 51 | 1006.2 |
| 20260504205006 | 23 | 200 | 8.0 | 22.5 | 0.00 | 0.00 | 0.00 | 52 | 1006.1 |
| 20260504204519 | 23 | 221 | 8.0 | 19.3 | 0.00 | 0.00 | 0.00 | 52 | 1006.1 |
| 20260504204030 | 22 | 108 | 6.4 | 29.0 | 0.00 | 0.00 | 0.00 | 52 | 1005.9 |
| 20260504203544 | 22 | 200 | 8.0 | 29.0 | 0.00 | 0.00 | 0.00 | 50 | 1006.1 |
| 20260504203117 | 22 | 78 | 8.0 | 29.0 | 0.00 | 0.00 | 0.00 | 51 | 1006.0 |
| 20260504202515 | 22 | 288 | 8.0 | 29.0 | 0.00 | 0.00 | 0.00 | 50 | 1005.8 |
| 20260504202023 | 23 | 199 | 8.0 | 20.9 | 0.00 | 0.00 | 0.00 | 50 | 1005.9 |
| 20260504201538 | 23 | 227 | 9.7 | 20.9 | 0.00 | 0.00 | 0.00 | 50 | 1006.0 |
| 20260504201047 | 23 | 273 | 6.4 | 24.1 | 0.00 | 0.00 | 0.00 | 50 | 1005.9 |
| 20260504200504 | 23 | 317 | 9.7 | 29.0 | 0.00 | 0.00 | 0.00 | 48 | 1005.9 |
| 20260504200017 | 23 | 279 | 11.3 | 29.0 | 0.00 | 0.00 | 0.00 | 48 | 1005.9 |
| 20260504195528 | 23 | 206 | 6.4 | 25.7 | 0.00 | 0.00 | 0.00 | 50 | 1005.8 |
| 20260504195041 | 23 | 91 | 9.7 | 24.1 | 0.00 | 0.00 | 0.00 | 49 | 1005.9 |
| 20260504194602 | 23 | 243 | 9.7 | 24.1 | 0.00 | 0.00 | 0.00 | 49 | 1005.9 |
| 20260504194005 | 23 | 200 | 4.8 | 25.7 | 0.00 | 0.00 | 0.00 | 48 | 1005.8 |
| 20260504193519 | 23 | 85 | 8.0 | 22.5 | 0.00 | 0.00 | 0.00 | 48 | 1005.9 |
| 20260504193034 | 23 | 291 | 8.0 | 22.5 | 0.00 | 0.00 | 0.00 | 47 | 1005.9 |
| 20260504192544 | 24 | 286 | 11.3 | 25.7 | 0.00 | 0.00 | 0.00 | 45 | 1006.1 |
| 20260504192054 | 24 | 321 | 6.4 | 30.6 | 0.00 | 0.00 | 0.00 | 47 | 1006.1 |
| 20260504191511 | 24 | 171 | 11.3 | 30.6 | 0.00 | 0.00 | 0.00 | 47 | 1006.1 |
| 20260504191022 | 24 | 294 | 4.8 | 29.0 | 0.00 | 0.00 | 0.00 | 47 | 1006.1 |
| 20260504190536 | 24 | 217 | 9.7 | 29.0 | 0.00 | 0.00 | 0.00 | 47 | 1006.3 |
| 20260504190048 | 24 | 209 | 11.3 | 24.1 | 0.00 | 0.00 | 0.00 | 48 | 1006.2 |
| 20260504185558 | 23 | 262 | 8.0 | 22.5 | 0.00 | 0.00 | 0.00 | 47 | 1006.2 |
| 20260504185016 | 23 | 184 | 6.4 | 20.9 | 0.00 | 0.00 | 0.00 | 49 | 1006.3 |
| 20260504184524 | 23 | 277 | 3.2 | 24.1 | 0.00 | 0.00 | 0.00 | 49 | 1006.2 |
| 20260504184034 | 23 | 257 | 6.4 | 24.1 | 0.00 | 0.00 | 0.00 | 49 | 1006.2 |
| 20260504183554 | 23 | 215 | 9.7 | 24.1 | 0.00 | 0.00 | 0.00 | 48 | 1006.2 |
| 20260504183101 | 23 | 157 | 6.4 | 35.4 | 0.00 | 0.00 | 0.00 | 49 | 1006.4 |
| 20260504183010 | 23 | 189 | 6.4 | 35.4 | 0.00 | 0.00 | 0.00 | 49 | 1006.3 |
| 20260504182519 | 23 | 21 | 8.0 | 35.4 | 0.00 | 0.00 | 0.00 | 51 | 1006.5 |
| 20260504182032 | 23 | 254 | 8.0 | 22.5 | 0.00 | 0.00 | 0.00 | 50 | 1006.5 |
| 20260504181543 | 23 | 298 | 9.7 | 29.0 | 0.00 | 0.00 | 0.00 | 48 | 1006.6 |
| 20260504181056 | 23 | 211 | 9.7 | 29.0 | 0.00 | 0.00 | 0.00 | 51 | 1006.8 |
| 20260504180507 | 23 | 155 | 6.4 | 19.3 | 0.00 | 0.00 | 0.00 | 50 | 1006.8 |
| 20260504180021 | 22 | 290 | 6.4 | 19.3 | 0.00 | 0.00 | 0.00 | 54 | 1006.8 |
| 20260504175530 | 22 | 294 | 8.0 | 22.5 | 0.00 | 0.00 | 0.00 | 50 | 1006.8 |
| 20260504175046 | 22 | 283 | 8.0 | 29.0 | 0.00 | 0.00 | 0.00 | 51 | 1006.8 |
| 20260504174602 | 22 | 272 | 9.7 | 29.0 | 0.00 | 0.00 | 0.00 | 51 | 1007.0 |
| 20260504174014 | 22 | 138 | 1.6 | 14.5 | 0.00 | 0.00 | 0.00 | 54 | 1007.0 |
| 20260504173521 | 22 | 211 | 4.8 | 17.7 | 0.00 | 0.00 | 0.00 | 51 | 1007.1 |
| 20260504173046 | 22 | 292 | 1.6 | 17.7 | 0.00 | 0.00 | 0.00 | 53 | 1007.0 |
| 20260504172546 | 22 | 265 | 6.4 | 19.3 | 0.00 | 0.00 | 0.00 | 53 | 1007.0 |
| 20260504172103 | 22 | 245 | 4.8 | 16.1 | 0.00 | 0.00 | 0.00 | 52 | 1007.1 |
| 20260504172002 | 21 | 273 | 4.8 | 14.5 | 0.00 | 0.00 | 0.00 | 54 | 1007.2 |
| 20260504171518 | 21 | 274 | 6.4 | 16.1 | 0.00 | 0.00 | 0.00 | 55 | 1007.2 |
| 20260504171026 | 21 | 92 | 4.8 | 17.7 | 0.00 | 0.00 | 0.00 | 54 | 1007.1 |
| 20260504170534 | 21 | 84 | 3.2 | 35.4 | 0.00 | 0.00 | 0.00 | 56 | 1007.3 |
| 20260504151026 | 18 | 256 | 6.4 | 24.1 | 0.00 | 0.00 | 0.00 | 56 | 1008.4 |
| 20260504150542 | 18 | 244 | 8.0 | 24.1 | 0.00 | 0.00 | 0.00 | 57 | 1008.3 |
| 20260504141002 | 16 | 281 | 9.7 | 19.3 | 0.00 | 0.00 | 0.00 | 57 | 1009.3 |
| 20260504140512 | 16 | 192 | 3.2 | 14.5 | 0.00 | 0.00 | 0.00 | 60 | 1009.3 |
| 20260504130559 | 12 | 153 | 4.8 | 17.7 | 0.00 | 0.00 | 0.00 | 64 | 1009.5 |